Time,TemperatureF,DewpointF,PressureIn,WindDirection,WindDirectionDegrees,WindSpeedMPH,WindSpeedGustMPH,Humidity,HourlyPrecipIn,Conditions,Clouds,dailyrainin,SoftwareType,DateUTC
2013-09-18 00:00:00,60.6,58.3,29.47,SE,135,1.6,1.8,92,0.00,,,0.08,open2300-1.11,2013-09-17 22:00:00,
2013-09-18 00:10:00,60.6,58.3,29.47,North,0,0.0,1.6,92,0.00,,,0.08,open2300-1.11,2013-09-17 22:10:00,
2013-09-18 00:15:00,60.6,58.3,29.47,NW,315,0.0,0.0,92,0.00,,,0.08,open2300-1.11,2013-09-17 22:15:00,
2013-09-18 00:20:00,60.4,58.1,29.47,WNW,292,1.1,4.0,92,0.00,,,0.08,open2300-1.11,2013-09-17 22:20:00,
2013-09-18 00:25:00,60.4,58.1,29.47,SSW,202,0.0,1.1,92,0.00,,,0.08,open2300-1.11,2013-09-17 22:25:00,
2013-09-18 00:35:00,60.4,58.1,29.47,West,270,0.9,5.4,92,0.00,,,0.08,open2300-1.11,2013-09-17 22:35:00,
2013-09-18 00:45:00,60.4,58.1,29.47,North,0,0.9,1.6,92,0.00,,,0.08,open2300-1.11,2013-09-17 22:45:00,
2013-09-18 00:50:00,60.4,58.1,29.48,NNW,337,3.6,3.6,92,0.00,,,0.08,open2300-1.11,2013-09-17 22:50:00,
2013-09-18 00:55:00,60.4,58.1,29.47,ESE,112,6.3,6.3,92,0.00,,,0.08,open2300-1.11,2013-09-17 22:55:00,
2013-09-18 01:00:00,60.4,58.1,29.47,SSE,157,0.0,6.3,92,0.00,,,0.08,open2300-1.11,2013-09-17 23:00:00,
2013-09-18 01:05:00,60.3,58.0,29.47,NE,45,2.2,2.7,92,0.00,,,0.08,open2300-1.11,2013-09-17 23:05:00,
2013-09-18 01:10:00,60.1,57.5,29.47,NNE,22,2.0,2.2,91,0.00,,,0.08,open2300-1.11,2013-09-17 23:10:00,
2013-09-18 01:20:00,60.1,57.5,29.47,SSE,157,0.0,7.4,91,0.00,,,0.08,open2300-1.11,2013-09-17 23:20:00,
2013-09-18 01:25:00,59.9,57.3,29.47,NE,45,0.0,0.0,91,0.00,,,0.08,open2300-1.11,2013-09-17 23:25:00,
2013-09-18 01:30:00,59.9,57.3,29.47,North,0,1.1,6.0,91,0.00,,,0.08,open2300-1.11,2013-09-17 23:30:00,
2013-09-18 01:37:00,59.5,57.0,29.47,North,0,0.0,1.1,91,0.00,,,0.08,open2300-1.11,2013-09-17 23:37:00,
2013-09-18 01:45:00,59.5,57.0,29.47,North,0,2.5,3.8,91,0.00,,,0.08,open2300-1.11,2013-09-17 23:45:00,
2013-09-18 01:52:00,59.5,57.0,29.47,NNW,337,4.5,4.5,91,0.00,,,0.08,open2300-1.11,2013-09-17 23:52:00,
2013-09-18 02:00:00,59.5,57.0,29.47,NNW,337,0.0,2.0,91,0.00,,,0.08,open2300-1.11,2013-09-18 00:00:00,
2013-09-18 02:10:00,59.5,57.0,29.48,SSW,202,0.0,2.0,91,0.00,,,0.08,open2300-1.11,2013-09-18 00:10:00,
2013-09-18 02:15:00,59.5,57.0,29.48,NNW,337,0.0,0.0,91,0.00,,,0.08,open2300-1.11,2013-09-18 00:15:00,
2013-09-18 02:20:00,59.5,57.0,29.48,WNW,292,3.8,3.8,91,0.00,,,0.08,open2300-1.11,2013-09-18 00:20:00,
2013-09-18 02:30:00,59.4,56.8,29.47,NE,45,0.0,3.8,91,0.00,,,0.08,open2300-1.11,2013-09-18 00:30:00,
2013-09-18 02:35:00,59.4,56.8,29.48,NW,315,0.0,0.0,91,0.00,,,0.08,open2300-1.11,2013-09-18 00:35:00,
2013-09-18 02:45:00,59.0,56.1,29.48,East,90,2.2,2.2,90,0.00,,,0.08,open2300-1.11,2013-09-18 00:45:00,
2013-09-18 02:50:00,58.8,55.9,29.48,West,270,0.0,2.2,90,0.00,,,0.08,open2300-1.11,2013-09-18 00:50:00,
2013-09-18 03:00:00,59.2,56.3,29.48,North,0,0.0,0.0,90,0.00,,,0.08,open2300-1.11,2013-09-18 01:00:00,
2013-09-18 03:10:00,59.2,56.3,29.48,NW,315,2.7,3.8,90,0.00,,,0.08,open2300-1.11,2013-09-18 01:10:00,
2013-09-18 03:20:00,59.2,56.3,29.47,NE,45,0.0,0.0,90,0.00,,,0.08,open2300-1.11,2013-09-18 01:20:00,
2013-09-18 03:25:00,59.4,56.5,29.48,NW,315,2.2,4.0,90,0.00,,,0.08,open2300-1.11,2013-09-18 01:25:00,
2013-09-18 03:30:00,59.4,56.5,29.48,North,0,0.0,2.2,90,0.00,,,0.08,open2300-1.11,2013-09-18 01:30:00,
2013-09-18 03:35:00,59.2,56.3,29.48,SSE,157,2.5,2.5,90,0.00,,,0.08,open2300-1.11,2013-09-18 01:35:00,
2013-09-18 03:48:00,59.4,56.5,29.48,ENE,67,0.0,0.0,90,0.00,,,0.08,open2300-1.11,2013-09-18 01:48:00,
2013-09-18 03:55:00,59.4,56.2,29.48,SW,225,0.0,0.0,89,0.00,,,0.08,open2300-1.11,2013-09-18 01:55:00,
2013-09-18 04:00:00,59.4,56.2,29.48,WSW,247,4.7,4.7,89,0.00,,,0.08,open2300-1.11,2013-09-18 02:00:00,
2013-09-18 04:05:00,59.4,56.2,29.48,SE,135,0.0,4.7,89,0.00,,,0.08,open2300-1.11,2013-09-18 02:05:00,
2013-09-18 04:10:00,59.5,56.0,29.48,East,90,8.3,8.3,88,0.00,,,0.08,open2300-1.11,2013-09-18 02:10:00,
2013-09-18 04:15:00,59.5,56.0,29.47,NNW,337,3.1,8.3,88,0.00,,,0.08,open2300-1.11,2013-09-18 02:15:00,
2013-09-18 04:20:00,59.5,56.0,29.47,NNW,337,0.0,3.1,88,0.00,,,0.08,open2300-1.11,2013-09-18 02:20:00,
2013-09-18 04:25:00,59.4,55.8,29.47,North,0,2.5,2.5,88,0.00,,,0.08,open2300-1.11,2013-09-18 02:25:00,
2013-09-18 04:30:00,59.2,55.7,29.48,SW,225,3.1,3.1,88,0.00,,,0.08,open2300-1.11,2013-09-18 02:30:00,
2013-09-18 04:40:00,58.8,55.3,29.47,WNW,292,2.2,3.1,88,0.00,,,0.08,open2300-1.11,2013-09-18 02:40:00,
2013-09-18 04:45:00,59.0,55.5,29.48,SE,135,0.0,2.2,88,0.00,,,0.08,open2300-1.11,2013-09-18 02:45:00,
2013-09-18 04:50:00,58.8,55.3,29.47,SW,225,0.0,0.0,88,0.00,,,0.08,open2300-1.11,2013-09-18 02:50:00,
2013-09-18 05:00:00,58.8,55.3,29.47,SSE,157,0.0,6.3,88,0.00,,,0.08,open2300-1.11,2013-09-18 03:00:00,
2013-09-18 05:05:00,59.2,55.3,29.48,West,270,3.4,6.7,87,0.00,,,0.08,open2300-1.11,2013-09-18 03:05:00,
2013-09-18 05:12:00,59.2,55.3,29.48,ESE,112,0.0,6.0,87,0.00,,,0.08,open2300-1.11,2013-09-18 03:12:00,
2013-09-18 05:20:00,59.4,55.5,29.48,South,180,1.1,2.2,87,0.00,,,0.08,open2300-1.11,2013-09-18 03:20:00,
2013-09-18 05:25:00,59.4,55.5,29.48,North,0,2.5,2.5,87,0.00,,,0.08,open2300-1.11,2013-09-18 03:25:00,
2013-09-18 05:30:00,59.4,55.5,29.48,NW,315,1.8,2.5,87,0.00,,,0.08,open2300-1.11,2013-09-18 03:30:00,
2013-09-18 05:40:00,59.2,55.3,29.49,WNW,292,8.5,8.5,87,0.00,,,0.08,open2300-1.11,2013-09-18 03:40:00,
2013-09-18 05:45:00,59.2,55.3,29.48,West,270,0.0,8.5,87,0.00,,,0.08,open2300-1.11,2013-09-18 03:45:00,
2013-09-18 05:55:00,58.8,55.0,29.49,WNW,292,7.4,7.4,87,0.00,,,0.08,open2300-1.11,2013-09-18 03:55:00,
2013-09-18 06:00:00,58.8,55.0,29.49,WSW,247,1.6,7.4,87,0.00,,,0.08,open2300-1.11,2013-09-18 04:00:00,
2013-09-18 06:05:00,58.6,54.8,29.49,NNW,337,3.8,3.8,87,0.00,,,0.08,open2300-1.11,2013-09-18 04:05:00,
2013-09-18 06:10:00,58.3,54.4,29.49,NW,315,0.0,1.6,87,0.00,,,0.08,open2300-1.11,2013-09-18 04:10:00,
2013-09-18 06:15:00,57.9,54.1,29.49,NW,315,2.2,2.2,87,0.00,,,0.08,open2300-1.11,2013-09-18 04:15:00,
2013-09-18 06:20:00,57.9,54.4,29.49,NNW,337,5.6,5.6,88,0.00,,,0.08,open2300-1.11,2013-09-18 04:20:00,
2013-09-18 06:26:00,57.9,54.4,29.50,NW,315,1.6,5.6,88,0.00,,,0.08,open2300-1.11,2013-09-18 04:26:00,
2013-09-18 06:35:00,57.9,54.4,29.50,SSE,157,2.0,2.7,88,0.00,,,0.08,open2300-1.11,2013-09-18 04:35:00,
2013-09-18 06:40:00,57.7,54.2,29.50,North,0,0.0,2.0,88,0.00,,,0.08,open2300-1.11,2013-09-18 04:40:00,
2013-09-18 06:45:00,57.7,54.2,29.50,WSW,247,1.8,1.8,88,0.00,,,0.08,open2300-1.11,2013-09-18 04:45:00,
2013-09-18 06:55:00,57.7,54.2,29.50,NE,45,0.0,0.0,88,0.00,,,0.08,open2300-1.11,2013-09-18 04:55:00,
2013-09-18 07:00:00,57.7,54.2,29.50,West,270,1.6,1.6,88,0.00,,,0.08,open2300-1.11,2013-09-18 05:00:00,
2013-09-18 07:06:00,57.7,54.2,29.50,SSE,157,0.0,1.6,88,0.00,,,0.08,open2300-1.11,2013-09-18 05:06:00,
2013-09-18 07:15:00,57.6,54.0,29.51,SE,135,0.0,0.0,88,0.00,,,0.08,open2300-1.11,2013-09-18 05:15:00,
2013-09-18 07:20:00,57.6,54.0,29.50,NNW,337,0.0,2.0,88,0.00,,,0.08,open2300-1.11,2013-09-18 05:20:00,
2013-09-18 07:25:00,57.6,54.0,29.51,NW,315,0.0,3.8,88,0.00,,,0.08,open2300-1.11,2013-09-18 05:25:00,
2013-09-18 07:35:00,57.7,54.2,29.51,West,270,0.0,0.0,88,0.00,,,0.08,open2300-1.11,2013-09-18 05:35:00,
2013-09-18 07:45:00,57.7,53.9,29.51,SSW,202,4.2,4.2,87,0.00,,,0.08,open2300-1.11,2013-09-18 05:45:00,
2013-09-18 07:50:00,57.7,16.1,29.51,SW,225,0.0,4.2,87,0.00,,,0.08,open2300-1.11,2013-09-18 05:50:00,
2013-09-18 08:00:00,57.7,53.9,29.51,NNE,22,1.3,2.5,87,0.00,,,0.08,open2300-1.11,2013-09-18 06:00:00,
2013-09-18 08:05:00,57.9,54.1,29.51,South,180,0.0,2.9,87,0.00,,,0.08,open2300-1.11,2013-09-18 06:05:00,
2013-09-18 08:10:00,57.9,54.1,29.51,SSW,202,1.6,1.6,87,0.00,,,0.08,open2300-1.11,2013-09-18 06:10:00,
2013-09-18 08:20:00,57.7,53.9,29.51,SW,225,3.8,3.8,87,0.00,,,0.08,open2300-1.11,2013-09-18 06:20:00,
2013-09-18 08:25:00,57.7,53.6,29.52,West,270,0.0,3.8,86,0.00,,,0.08,open2300-1.11,2013-09-18 06:25:00,
2013-09-18 08:30:00,57.7,53.6,29.51,SE,135,0.0,2.2,86,0.00,,,0.08,open2300-1.11,2013-09-18 06:30:00,
2013-09-18 08:36:00,57.7,53.6,29.52,SW,225,0.0,0.0,86,0.00,,,0.08,open2300-1.11,2013-09-18 06:36:00,
2013-09-18 08:45:00,57.7,53.6,29.52,South,180,0.0,0.0,86,0.00,,,0.08,open2300-1.11,2013-09-18 06:45:00,
2013-09-18 08:50:00,57.9,53.7,29.52,SSE,157,0.0,0.0,86,0.00,,,0.08,open2300-1.11,2013-09-18 06:50:00,
2013-09-18 08:55:00,57.9,53.7,29.53,South,180,0.0,0.0,86,0.00,,,0.08,open2300-1.11,2013-09-18 06:55:00,
2013-09-18 09:00:00,57.9,53.7,29.52,SSE,157,0.9,2.0,86,0.00,,,0.08,open2300-1.11,2013-09-18 07:00:00,
2013-09-18 09:10:00,58.1,53.9,29.53,NNW,337,0.0,0.0,86,0.00,,,0.08,open2300-1.11,2013-09-18 07:10:00,
2013-09-18 09:20:00,58.6,54.5,29.53,NW,315,0.0,4.5,86,0.00,,,0.08,open2300-1.11,2013-09-18 07:20:00,
2013-09-18 09:26:00,58.6,54.5,29.53,NE,45,0.0,0.0,86,0.00,,,0.08,open2300-1.11,2013-09-18 07:26:00,
2013-09-18 09:35:00,58.8,54.6,29.53,SSE,157,2.9,2.9,86,0.00,,,0.08,open2300-1.11,2013-09-18 07:35:00,
2013-09-18 09:40:00,58.8,54.6,29.53,South,180,0.0,2.9,86,0.00,,,0.08,open2300-1.11,2013-09-18 07:40:00,
2013-09-18 09:45:00,59.4,54.9,29.53,WSW,247,0.0,0.0,85,0.00,,,0.08,open2300-1.11,2013-09-18 07:45:00,
2013-09-18 09:50:00,59.7,55.2,29.53,NNW,337,2.9,2.9,85,0.00,,,0.08,open2300-1.11,2013-09-18 07:50:00,
2013-09-18 10:00:00,60.1,55.3,29.53,North,0,0.0,3.8,84,0.00,,,0.08,open2300-1.11,2013-09-18 08:00:00,
2013-09-18 10:05:00,60.6,55.8,29.53,SSE,157,0.0,1.6,84,0.00,,,0.08,open2300-1.11,2013-09-18 08:05:00,
2013-09-18 10:10:00,60.6,55.5,29.53,WNW,292,0.0,1.8,83,0.00,,,0.08,open2300-1.11,2013-09-18 08:10:00,
2013-09-18 10:15:00,60.6,55.5,29.54,North,0,0.0,0.0,83,0.00,,,0.08,open2300-1.11,2013-09-18 08:15:00,
2013-09-18 10:20:00,60.4,55.0,29.54,North,0,0.0,2.0,82,0.00,,,0.08,open2300-1.11,2013-09-18 08:20:00,
2013-09-18 10:30:00,60.3,54.8,29.54,North,0,0.0,0.0,82,0.00,,,0.08,open2300-1.11,2013-09-18 08:30:00,
2013-09-18 10:35:00,60.3,54.8,29.54,East,90,0.0,2.9,82,0.00,,,0.08,open2300-1.11,2013-09-18 08:35:00,
2013-09-18 10:41:00,60.1,54.6,29.54,NNE,22,0.0,0.0,82,0.00,,,0.08,open2300-1.11,2013-09-18 08:41:00,
2013-09-18 10:50:00,60.3,54.8,29.54,NNE,22,0.0,2.0,82,0.00,,,0.08,open2300-1.11,2013-09-18 08:50:00,
2013-09-18 10:55:00,60.4,55.0,29.55,NNW,337,0.0,0.0,82,0.00,,,0.08,open2300-1.11,2013-09-18 08:55:00,
2013-09-18 11:05:00,60.6,54.8,29.55,SE,135,3.1,3.1,81,0.00,,,0.08,open2300-1.11,2013-09-18 09:05:00,
2013-09-18 11:10:00,60.6,54.8,29.55,NW,315,3.8,3.8,81,0.00,,,0.08,open2300-1.11,2013-09-18 09:10:00,
2013-09-18 11:20:00,61.0,55.2,29.55,NNW,337,0.0,2.9,81,0.00,,,0.08,open2300-1.11,2013-09-18 09:20:00,
2013-09-18 11:25:00,61.3,55.2,29.55,NW,315,0.0,1.6,80,0.00,,,0.08,open2300-1.11,2013-09-18 09:25:00,
2013-09-18 11:30:00,61.3,55.2,29.55,WNW,292,0.0,0.0,80,0.00,,,0.08,open2300-1.11,2013-09-18 09:30:00,
2013-09-18 11:40:00,61.7,55.1,29.56,South,180,0.0,1.6,79,0.00,,,0.08,open2300-1.11,2013-09-18 09:40:00,
2013-09-18 11:45:00,61.9,55.3,29.56,South,180,8.3,8.3,79,0.00,,,0.08,open2300-1.11,2013-09-18 09:45:00,
2013-09-18 11:50:00,61.9,55.3,29.56,SSW,202,3.6,8.3,79,0.00,,,0.08,open2300-1.11,2013-09-18 09:50:00,
2013-09-18 12:00:00,61.9,55.3,29.55,NNW,337,0.0,4.9,79,0.00,,,0.08,open2300-1.11,2013-09-18 10:00:00,
2013-09-18 12:05:00,62.2,55.3,29.55,WSW,247,1.3,2.0,78,0.00,,,0.08,open2300-1.11,2013-09-18 10:05:00,
2013-09-18 12:10:00,62.1,55.1,29.55,NE,45,0.0,1.6,78,0.00,,,0.08,open2300-1.11,2013-09-18 10:10:00,
2013-09-18 12:15:00,62.1,54.7,29.55,WNW,292,0.0,1.8,77,0.00,,,0.08,open2300-1.11,2013-09-18 10:15:00,
2013-09-18 12:25:00,61.7,54.4,29.56,WSW,247,1.1,4.5,77,0.00,,,0.08,open2300-1.11,2013-09-18 10:25:00,
2013-09-18 12:30:00,61.7,54.4,29.56,SW,225,1.1,1.1,77,0.00,,,0.08,open2300-1.11,2013-09-18 10:30:00,
2013-09-18 12:35:00,61.5,54.6,29.56,SE,135,0.0,1.1,78,0.00,,,0.08,open2300-1.11,2013-09-18 10:35:00,
2013-09-18 12:40:00,61.5,54.6,29.56,SW,225,6.3,6.3,78,0.00,,,0.08,open2300-1.11,2013-09-18 10:40:00,
2013-09-18 12:45:00,61.3,54.5,29.56,SSE,157,1.3,6.3,78,0.00,,,0.08,open2300-1.11,2013-09-18 10:45:00,
2013-09-18 12:50:00,61.3,54.5,29.57,East,90,0.0,2.2,78,0.00,,,0.08,open2300-1.11,2013-09-18 10:50:00,
2013-09-18 12:55:00,61.3,54.5,29.57,NW,315,1.6,3.8,78,0.00,,,0.08,open2300-1.11,2013-09-18 10:55:00,
2013-09-18 13:05:00,61.5,55.0,29.57,East,90,0.0,0.0,79,0.00,,,0.08,open2300-1.11,2013-09-18 11:05:00,
2013-09-18 13:15:00,61.9,54.9,29.57,NE,45,1.1,4.0,78,0.00,,,0.08,open2300-1.11,2013-09-18 11:15:00,
2013-09-18 13:25:00,61.7,54.8,29.57,WNW,292,0.0,0.0,78,0.00,,,0.08,open2300-1.11,2013-09-18 11:25:00,
2013-09-18 13:30:00,61.7,54.8,29.58,North,0,0.0,2.5,78,0.00,,,0.08,open2300-1.11,2013-09-18 11:30:00,
2013-09-18 13:35:00,61.5,54.6,29.58,NNE,22,0.7,0.9,78,0.00,,,0.08,open2300-1.11,2013-09-18 11:35:00,
2013-09-18 13:40:00,61.3,54.8,29.58,NNW,337,0.0,2.0,79,0.00,,,0.08,open2300-1.11,2013-09-18 11:40:00,
2013-09-18 13:45:00,61.0,54.5,29.58,WNW,292,0.0,2.9,79,0.00,,,0.08,open2300-1.11,2013-09-18 11:45:00,
2013-09-18 13:50:00,61.0,54.5,29.58,West,270,0.0,3.6,79,0.00,,,0.08,open2300-1.11,2013-09-18 11:50:00,
2013-09-18 13:56:00,61.0,54.8,29.58,WNW,292,2.2,2.2,80,0.00,,,0.08,open2300-1.11,2013-09-18 11:56:00,
2013-09-18 14:05:00,61.3,55.2,29.59,WNW,292,0.0,1.1,80,0.00,,,0.08,open2300-1.11,2013-09-18 12:05:00,
2013-09-18 14:15:00,61.7,55.5,29.59,NW,315,3.8,3.8,80,0.00,,,0.08,open2300-1.11,2013-09-18 12:15:00,
2013-09-18 14:20:00,61.5,55.0,29.59,West,270,0.0,3.8,79,0.00,,,0.08,open2300-1.11,2013-09-18 12:20:00,
2013-09-18 14:25:00,61.3,55.2,29.59,NNW,337,1.6,1.6,80,0.00,,,0.08,open2300-1.11,2013-09-18 12:25:00,
2013-09-18 14:35:00,61.2,55.0,29.59,North,0,3.4,3.4,80,0.00,,,0.08,open2300-1.11,2013-09-18 12:35:00,
2013-09-18 14:40:00,61.0,55.2,29.59,West,270,0.9,3.4,81,0.00,,,0.08,open2300-1.11,2013-09-18 12:40:00,
2013-09-18 14:45:00,61.0,55.2,29.59,SSE,157,0.7,0.9,81,0.00,,,0.08,open2300-1.11,2013-09-18 12:45:00,
2013-09-18 14:50:00,61.3,55.5,29.59,West,270,0.0,0.7,81,0.00,,,0.08,open2300-1.11,2013-09-18 12:50:00,
2013-09-18 14:55:00,61.3,55.5,29.59,NW,315,4.2,4.2,81,0.00,,,0.08,open2300-1.11,2013-09-18 12:55:00,
2013-09-18 15:00:00,61.3,55.5,29.59,NW,315,1.6,4.2,81,0.00,,,0.08,open2300-1.11,2013-09-18 13:00:00,
2013-09-18 15:05:00,61.2,55.0,29.59,WNW,292,0.0,1.6,80,0.00,,,0.08,open2300-1.11,2013-09-18 13:05:00,
2013-09-18 15:15:00,61.3,55.2,29.60,NNW,337,2.0,2.0,80,0.00,,,0.08,open2300-1.11,2013-09-18 13:15:00,
2013-09-18 15:20:00,61.3,54.8,29.60,West,270,0.0,2.0,79,0.00,,,0.08,open2300-1.11,2013-09-18 13:20:00,
2013-09-18 15:30:00,61.2,54.6,29.61,West,270,0.0,1.1,79,0.00,,,0.08,open2300-1.11,2013-09-18 13:30:00,
2013-09-18 15:35:00,61.0,54.8,29.62,NW,315,0.0,0.0,80,0.00,,,0.08,open2300-1.11,2013-09-18 13:35:00,
2013-09-18 15:45:00,59.9,54.4,29.62,WNW,292,0.0,2.9,82,0.00,,,0.08,open2300-1.11,2013-09-18 13:45:00,
2013-09-18 15:55:00,58.8,54.0,29.61,WNW,292,0.0,0.0,84,0.00,,,0.08,open2300-1.11,2013-09-18 13:55:00,
2013-09-18 16:00:00,58.8,54.3,29.61,NW,315,0.0,0.0,85,0.00,,,0.08,open2300-1.11,2013-09-18 14:00:00,
2013-09-18 16:10:00,59.4,55.2,29.62,West,270,0.0,0.0,86,0.00,,,0.08,open2300-1.11,2013-09-18 14:10:00,
2013-09-18 16:15:00,59.2,55.0,29.62,WNW,292,0.0,2.5,86,0.00,,,0.08,open2300-1.11,2013-09-18 14:15:00,
2013-09-18 16:20:00,59.2,55.0,29.62,SW,225,2.5,2.5,86,0.00,,,0.08,open2300-1.11,2013-09-18 14:20:00,
2013-09-18 16:30:00,58.8,55.0,29.62,NNW,337,0.0,0.0,87,0.00,,,0.08,open2300-1.11,2013-09-18 14:30:00,
2013-09-18 16:35:00,58.8,55.0,29.62,NNW,337,2.7,2.7,87,0.00,,,0.08,open2300-1.11,2013-09-18 14:35:00,
2013-09-18 16:40:00,59.4,55.5,29.62,WNW,292,1.1,2.7,87,0.00,,,0.08,open2300-1.11,2013-09-18 14:40:00,
2013-09-18 16:50:00,60.1,56.2,29.62,WNW,292,0.0,0.7,87,0.00,,,0.08,open2300-1.11,2013-09-18 14:50:00,
2013-09-18 16:55:00,60.1,56.2,29.62,West,270,1.6,1.6,87,0.00,,,0.08,open2300-1.11,2013-09-18 14:55:00,
2013-09-18 17:00:00,59.9,56.0,29.63,NW,315,0.0,1.6,87,0.00,,,0.08,open2300-1.11,2013-09-18 15:00:00,
2013-09-18 17:10:00,59.2,55.3,29.63,NE,45,0.0,0.0,87,0.00,,,0.08,open2300-1.11,2013-09-18 15:10:00,
2013-09-18 17:15:00,59.2,55.3,29.63,WSW,247,0.0,0.0,87,0.00,,,0.08,open2300-1.11,2013-09-18 15:15:00,
2013-09-18 17:20:00,58.8,55.0,29.63,WNW,292,0.0,1.3,87,0.00,,,0.08,open2300-1.11,2013-09-18 15:20:00,
2013-09-18 17:25:00,58.8,55.0,29.64,West,270,0.0,0.0,87,0.00,,,0.08,open2300-1.11,2013-09-18 15:25:00,
2013-09-18 17:30:00,58.8,55.0,29.64,NW,315,0.0,0.0,87,0.00,,,0.08,open2300-1.11,2013-09-18 15:30:00,
2013-09-18 17:35:00,58.8,55.0,29.64,West,270,0.0,0.0,87,0.00,,,0.08,open2300-1.11,2013-09-18 15:35:00,
2013-09-18 17:45:00,58.8,55.0,29.65,WNW,292,0.0,1.6,87,0.00,,,0.04,open2300-1.11,2013-09-18 15:45:00,
2013-09-18 17:51:00,58.8,55.0,29.65,NW,315,0.0,0.0,87,0.00,,,0.04,open2300-1.11,2013-09-18 15:51:00,
2013-09-18 18:00:00,58.8,55.0,29.65,NW,315,0.9,0.9,87,0.00,,,0.04,open2300-1.11,2013-09-18 16:00:00,
2013-09-18 18:05:00,59.0,55.2,29.65,NW,315,0.0,2.9,87,0.00,,,0.04,open2300-1.11,2013-09-18 16:05:00,
2013-09-18 18:10:00,59.0,55.2,29.65,WNW,292,2.0,5.1,87,0.00,,,0.04,open2300-1.11,2013-09-18 16:10:00,
2013-09-18 18:20:00,58.8,55.0,29.66,SW,225,0.0,0.0,87,0.00,,,0.04,open2300-1.11,2013-09-18 16:20:00,
2013-09-18 18:25:00,58.8,54.6,29.67,NW,315,1.8,1.8,86,0.00,,,0.04,open2300-1.11,2013-09-18 16:25:00,
2013-09-18 18:35:00,58.6,54.5,29.67,NW,315,0.0,0.0,86,0.00,,,0.04,open2300-1.11,2013-09-18 16:35:00,
2013-09-18 18:40:00,58.5,54.3,29.67,NW,315,0.0,0.0,86,0.00,,,0.04,open2300-1.11,2013-09-18 16:40:00,
2013-09-18 18:50:00,57.9,53.7,29.68,NW,315,0.0,0.9,86,0.00,,,0.00,open2300-1.11,2013-09-18 16:50:00,
2013-09-18 18:55:00,57.9,53.7,29.68,WNW,292,0.0,0.0,86,0.00,,,0.00,open2300-1.11,2013-09-18 16:55:00,
2013-09-18 19:00:00,57.7,53.6,29.68,WNW,292,0.0,0.0,86,0.00,,,0.00,open2300-1.11,2013-09-18 17:00:00,
2013-09-18 19:06:00,57.7,53.6,29.68,WNW,292,0.0,0.0,86,0.00,,,0.00,open2300-1.11,2013-09-18 17:06:00,
2013-09-18 19:15:00,57.6,53.7,29.69,WNW,292,0.0,0.0,87,0.00,,,0.00,open2300-1.11,2013-09-18 17:15:00,
2013-09-18 19:20:00,57.6,53.7,29.69,WNW,292,0.0,0.0,87,0.00,,,0.00,open2300-1.11,2013-09-18 17:20:00,
2013-09-18 19:30:00,57.4,53.5,29.70,NW,315,0.0,0.0,87,0.00,,,0.00,open2300-1.11,2013-09-18 17:30:00,
2013-09-18 19:40:00,57.0,53.2,29.70,WNW,292,0.0,0.0,87,0.00,,,0.00,open2300-1.11,2013-09-18 17:40:00,
2013-09-18 19:45:00,57.0,53.2,29.71,NW,315,0.0,0.0,87,0.00,,,0.00,open2300-1.11,2013-09-18 17:45:00,
2013-09-18 19:52:00,56.8,53.0,29.71,NW,315,0.0,2.0,87,0.00,,,0.00,open2300-1.11,2013-09-18 17:52:00,
2013-09-18 20:00:00,56.5,52.3,29.71,WNW,292,0.0,1.3,86,0.00,,,0.00,open2300-1.11,2013-09-18 18:00:00,
2013-09-18 20:05:00,56.1,51.9,29.71,NW,315,0.0,0.0,86,0.00,,,0.00,open2300-1.11,2013-09-18 18:05:00,
2013-09-18 20:10:00,55.9,51.4,29.71,WNW,292,0.0,0.0,85,0.00,,,0.00,open2300-1.11,2013-09-18 18:10:00,
2013-09-18 20:15:00,55.8,51.3,29.71,WNW,292,0.0,0.0,85,0.00,,,0.00,open2300-1.11,2013-09-18 18:15:00,
2013-09-18 20:20:00,55.2,50.7,29.73,NW,315,0.0,0.0,85,0.00,,,0.00,open2300-1.11,2013-09-18 18:20:00,
2013-09-18 20:30:00,55.0,50.9,29.73,NW,315,0.0,0.0,86,0.00,,,0.00,open2300-1.11,2013-09-18 18:30:00,
2013-09-18 20:35:00,54.9,50.7,29.74,NW,315,0.0,0.0,86,0.00,,,0.00,open2300-1.11,2013-09-18 18:35:00,
2013-09-18 20:45:00,54.7,50.5,29.74,NW,315,0.0,0.0,86,0.00,,,0.00,open2300-1.11,2013-09-18 18:45:00,
2013-09-18 20:55:00,54.5,50.4,29.75,NW,315,0.0,0.0,86,0.00,,,0.00,open2300-1.11,2013-09-18 18:55:00,
2013-09-18 21:05:00,54.3,50.5,29.75,WNW,292,0.0,0.0,87,0.00,,,0.00,open2300-1.11,2013-09-18 19:05:00,
2013-09-18 21:15:00,54.1,50.3,29.75,WNW,292,0.0,0.0,87,0.00,,,0.00,open2300-1.11,2013-09-18 19:15:00,
2013-09-18 21:25:00,53.8,50.0,29.76,WNW,292,0.0,0.0,87,0.00,,,0.00,open2300-1.11,2013-09-18 19:25:00,
2013-09-18 21:30:00,53.6,49.8,29.77,WNW,292,0.0,0.0,87,0.00,,,0.00,open2300-1.11,2013-09-18 19:30:00,
2013-09-18 21:35:00,53.4,49.6,29.77,WNW,292,0.0,0.0,87,0.00,,,0.00,open2300-1.11,2013-09-18 19:35:00,
2013-09-18 21:45:00,53.2,49.4,29.77,WNW,292,0.0,0.0,87,0.00,,,0.00,open2300-1.11,2013-09-18 19:45:00,
2013-09-18 21:55:00,53.1,49.3,29.78,WNW,292,0.0,0.0,87,0.00,,,0.00,open2300-1.11,2013-09-18 19:55:00,
2013-09-18 22:05:00,52.9,49.1,29.78,WNW,292,0.0,0.0,87,0.00,,,0.00,open2300-1.11,2013-09-18 20:05:00,
2013-09-18 22:10:00,52.9,49.1,29.78,WNW,292,0.0,0.0,87,0.00,,,0.00,open2300-1.11,2013-09-18 20:10:00,
2013-09-18 22:15:00,52.9,49.1,29.79,WNW,292,0.0,0.0,87,0.00,,,0.00,open2300-1.11,2013-09-18 20:15:00,
2013-09-18 22:20:00,52.9,49.4,29.79,NNW,337,0.0,0.0,88,0.00,,,0.00,open2300-1.11,2013-09-18 20:20:00,
2013-09-18 22:30:00,52.9,49.4,29.79,North,0,0.0,0.0,88,0.00,,,0.00,open2300-1.11,2013-09-18 20:30:00,
2013-09-18 22:40:00,52.9,49.4,29.79,North,0,0.0,0.0,88,0.00,,,0.00,open2300-1.11,2013-09-18 20:40:00,
2013-09-18 22:50:00,52.9,49.4,29.79,NNE,22,0.0,0.0,88,0.00,,,0.00,open2300-1.11,2013-09-18 20:50:00,
2013-09-18 23:00:00,52.9,49.4,29.80,NNE,22,0.0,0.0,88,0.00,,,0.00,open2300-1.11,2013-09-18 21:00:00,
2013-09-18 23:05:00,52.9,49.4,29.80,NNE,22,0.0,0.0,88,0.00,,,0.00,open2300-1.11,2013-09-18 21:05:00,
2013-09-18 23:15:00,53.1,49.6,29.81,NNE,22,0.0,0.0,88,0.00,,,0.00,open2300-1.11,2013-09-18 21:15:00,
2013-09-18 23:25:00,53.2,49.8,29.81,NNE,22,0.0,0.0,88,0.00,,,0.00,open2300-1.11,2013-09-18 21:25:00,
2013-09-18 23:40:00,53.4,49.9,29.81,SSE,157,0.0,0.0,88,0.00,,,0.00,open2300-1.11,2013-09-18 21:40:00,
2013-09-18 23:45:00,53.4,49.9,29.81,South,180,0.0,0.0,88,0.00,,,0.00,open2300-1.11,2013-09-18 21:45:00,
2013-09-18 23:55:00,53.4,49.9,29.81,NNW,337,0.0,0.0,88,0.00,,,0.00,open2300-1.11,2013-09-18 21:55:00,